Flag for Germany Weather past 2 weeks in Hamm, North Rhine-Westphalia, Germany

Now
86 °F

Passing clouds.


Feels Like: 87 °F
Forecast: 67 / 88 °F
Wind: 5 mph from Southwest

Location: Dortmund / Wickede

Current Time: Aug 30, 2015 at 6:23:11 PM

Latest Report: Aug 30, 2015 at 5:50 PM


Visibility: N/A

Pressure: 29.98 "Hg

Humidity: 49%

Dew point: 64 °F

Location of HammLocation

Historic Weather in Hamm — Graph

°F

Hamm temperature yesterday

Maximum temperature yesterday: 75 °F (at 3:20 PM)
Minimum temperature yesterday: 52 °F (at 5:50 AM)
Average temperature yesterday: 67 °F

Past Weeks' High & Low Weather Summary

 TemperatureHumidityPressure
High88 °F (Aug 30, 2:20 PM)94% (Aug 16, 6:20 AM)30.24 "Hg (Aug 16, 6:20 AM)
Low50 °F (Aug 19, 5:20 AM)26% (Aug 22, 4:50 PM)29.56 "Hg (Aug 24, 2:50 PM)
Average65 °F66%29.97 "Hg
* Reported Aug 15 5:20 PM — Aug 30 5:20 PM, Hamm, Weather by CustomWeather, © 2015

Note: Actual official high and low records may vary slightly from our data, if they occured in-between our weather recording intervals... More about our weather records

Advertising

Hamm weather history for previous 24 hours

 ConditionsComfort  
Time TempWeatherWind HumidityBarometerVisibility
5:20 PM
Sun, Aug 30
86 °FSunny.7 mph49%29.98 "Hg10 mi
4:50 PM88 °FSunny.9 mph43%29.98 "Hg10 mi
4:20 PM88 °FSunny.9 mph46%29.98 "Hg10 mi
3:50 PM88 °FPassing clouds.6 mph43%29.98 "HgN/A
3:20 PM86 °FPassing clouds.7 mph43%29.98 "HgN/A
2:50 PM88 °FPassing clouds.9 mph43%29.98 "HgN/A
2:20 PM88 °FPassing clouds.8 mph43%29.98 "HgN/A
1:50 PM86 °FPassing clouds.7 mph46%30.01 "HgN/A
1:20 PM84 °FSunny.3 mph51%30.01 "Hg10 mi
12:50 PM84 °FSunny.2 mph51%30.01 "Hg10 mi
12:20 PM82 °FSunny.2 mph55%30.01 "Hg10 mi
11:50 AM81 °FSunny.2 mph62%30.01 "Hg10 mi
11:20 AM79 °FSunny.2 mph65%30.04 "Hg10 mi
10:50 AM75 °FPassing clouds.6 mph65%30.04 "HgN/A
10:20 AM73 °FPassing clouds.6 mph69%30.04 "HgN/A
9:50 AM72 °FSunny.7 mph69%30.04 "Hg10 mi
9:20 AM70 °FSunny.8 mph73%30.07 "Hg10 mi
8:50 AM68 °FPassing clouds.9 mph78%30.07 "HgN/A
8:20 AM66 °FSunny.7 mph78%30.07 "Hg10 mi
7:50 AM63 °FSunny.6 mph88%30.07 "Hg10 mi
7:20 AM61 °FClear.3 mph88%30.07 "Hg10 mi
6:50 AM61 °FPassing clouds.6 mph88%30.07 "HgN/A
6:20 AM63 °FClear.5 mph88%30.04 "Hg10 mi
5:50 AM61 °FClear.2 mph88%30.04 "Hg10 mi
5:20 AM61 °FClear.2 mph88%30.04 "Hg10 mi
10:20 PM
Sat, Aug 29
66 °FClear.3 mph73%30.12 "Hg10 mi
9:50 PM68 °FClear.3 mph69%30.12 "Hg10 mi
9:20 PM68 °FSunny.3 mph69%30.12 "Hg10 mi
8:50 PM68 °FPassing clouds.5 mph69%30.12 "HgN/A
8:20 PM68 °FPassing clouds.5 mph69%30.12 "HgN/A
7:50 PM70 °FSunny.5 mph64%30.12 "Hg10 mi
7:20 PM72 °FSunny.5 mph61%30.12 "Hg10 mi
6:50 PM73 °FScattered clouds.3 mph61%30.12 "HgN/A
6:20 PM72 °FScattered clouds.7 mph61%30.12 "HgN/A
Weather by CustomWeather, © 2015

See weather overviewHow to use our weather pages